User: anonymous   Login
Location: Unspecified
(43.4000°N, 0.0000°E)
Time: 21:25:01
(UTC+00:00)
Language:

VELOX 1 - Orbit

View from above orbital plane
View from above orbital plane
View from above satellite
View from above satellite

Ground track
Ground track

The orbit data is extracted from the following two-line orbital elements,

1 40057U 14034E   19200.55477933  .00000172  00000-0  31678-4 0  9992
2 40057  98.2389 324.3130 0011935 131.2152 229.0082 14.77678246272328
Epoch (UTC): 19 July 2019 13:18:52
Eccentricity: 0.0011935
inclination: 98.2389°
perigee height: 628 km
apogee height: 645 km
right ascension of ascending node: 324.3130°
argument of perigee: 131.2152°
revolutions per day: 14.77678246
mean anomaly at epoch: 229.0082°
orbit number at epoch: 27232

The dashed part of the orbit path shows where the satellite is in the earth's shadow,  

DLR